Вернуться в каталог

STARLINK-34331

АктивенСвязьVLEO
NORAD 64204·PAYLOAD·🇺🇸 United States

Запущен May 31, 2025 с Vandenberg Space Force Base

Loading…

Ближайшие Пролёты (ближайшие 24 часа)

TLE

СвежийSource: CelesTrak SupGP

Эпоха: Sep 15, 2026, 03:44 UTC

1 64204C 25117B   26258.15604167 -.00050860  00000+0 -15027-2 0  2580
2 64204  53.1579 236.4528 0001434  88.1439  54.3911 15.34414279    17

Отслеживайте STARLINK-34331 в реальном времени с AllMySat

Download on the App Store